Regional Weather Roundup
Issued by NWS

Home | Current Version | Previous Version | Graphics & Text | Print | Product List | Glossary On
Versions: 1 2 3 4 5 6 7 8 9 10 11 12 13 14 15 16 17 18 19 20 21 22 23 24 25 26 27 28 29 30 31 32 33 34 35 36 37 38 39 40 41 42 43 44 45 46 47 48 49 50
000
ASUS43 KTOP 221508
RWRKS

WEATHER ROUNDUP FOR KANSAS
NATIONAL WEATHER SERVICE GOODLAND KS
1000 AM CDT TUE MAY 22 2018

NOTE:  "FAIR" INDICATES FEW OR NO CLOUDS BELOW 12,000 FEET WITH NO
SIGNIFICANT WEATHER AND/OR OBSTRUCTIONS TO VISIBILITY.

KSZ001>006-013>018-027>032-041>047-221600-
NORTHWEST KANSAS

CITY           SKY/WX    TMP DP  RH WIND       PRES   REMARKS
GOODLAND       CLOUDY    69  53  56 S14       29.98F
HAYS           SUNNY     77  63  61 SW22      29.99S
HILL CITY      MOSUNNY   73  63  70 S9G18     29.99R
RUSSELL        SUNNY     76  65  68 S21       29.98F
$$

KSZ061>065-074>080-084>089-221600-
SOUTHWEST KANSAS

CITY           SKY/WX    TMP DP  RH WIND       PRES   REMARKS
DODGE CITY     SUNNY     76  61  59 S20G30    30.01F
ELKHART        PTSUNNY   73  56  54 SE9       30.02R
GARDEN CITY    SUNNY     71  58  63 S14       30.01S
GREAT BEND     SUNNY     75  64  68 S18G25    30.01F
LIBERAL          N/A     75  58  55 S14       30.00F
PRATT          SUNNY     75  63  65 SW17      30.03F
$$

KSZ066>073-081>083-090>101-221600-
SOUTHEAST KANSAS

CITY           SKY/WX    TMP DP  RH WIND       PRES   REMARKS
CHANUTE        MOSUNNY   75  67  76 SE5       30.06S
COFFEYVILLE    MOSUNNY   77  68  73 VRB6      30.05R
HUTCHINSON     SUNNY     76  66  71 S15       30.03R
MEDICINE LODGE   N/A     75  65  70 S9        30.02
NEWTON         SUNNY     75  66  73 S13       30.05S
PARSONS        MOSUNNY   77  67  71 VRB3      30.07R
WICHITA INTL   PTSUNNY   76  68  76 S13       30.03S
WICHITA JABRA  CLOUDY    76  67  73 S13       30.03F
WICHITA MCCONL MOSUNNY   76  66  71 SW12      30.04S
WINFIELD       CLOUDY    76  69  79 S8        30.05S
$$

KSZ007>012-019>026-033>040-048>060-102>105-221600-
NORTHEAST KANSAS

CITY           SKY/WX    TMP DP  RH WIND       PRES   REMARKS
CONCORDIA      CLOUDY    75  64  68 S16G22    30.00S
EMPORIA        SUNNY     74  66  76 S8        30.05S
LAWRENCE       SUNNY     75  65  70 VRB3      30.05S
MANHATTAN      SUNNY     79  66  64 SW12G21   30.02F
MARYSVILLE     PTSUNNY   75  66  73 S14       30.02R
OLATHE IND     MOSUNNY   74  64  71 SE9       30.07S
OLATHE EXE     SUNNY     74  65  73 S8        30.07S
SALINA         SUNNY     79  66  64 S18       30.01F
TOPEKA BILLARD SUNNY     76  66  71 SW10      30.04F
TOPEKA FORBES  SUNNY     77  66  68 S7        30.05S
$$




USA.gov is the U.S. government's official web portal to all federal, state and local government web resources and services.